Location: Eastlake (historical)
(39.0077°N, 122.6678°W)
Time: 09:45:33
(UTC+00:00)

ALOS - Pass Details

Date: 16 April 2021
Orbit: 682 x 685 km, 97.9° (Epoch: 08 May)

Event Time Altitude Azimuth Distance (km) Brightness Sun altitude
Rises 11:19:17 0° 31° (NNE) 3,053 6.8 -24.0°
Reaches altitude 10° 11:22:15 10° 51° (NE) 2,131 5.9 -23.6°
Maximum altitude 11:25:20 18° 92° (E) 1,676 4.8 -23.1°
Drops below altitude 10° 11:28:26 10° 135° (SE) 2,120 4.9 -22.6°
Sets 11:31:21 0° 154° (SSE) 3,030 5.5 -22.1°
